• In Portugal
  • List of Countries
  • For 7 days
  • Water Temperature
  • Satellite Maps
  • Weather Map
  • Weather Widgets
  • user-avatar
    Login

    Hourly Weather Amar

    Today, 21 September, Thursday

    Time Temperature Precipitation Wind Pressure Humidity
    00:00 +35°C° 0 mm 2 mps 750 mmHg 65%
    01:00 +33°C° 0 mm 1 mps 750 mmHg 66%
    02:00 +33°C° 0 mm 1 mps 750 mmHg 67%
    03:00 +32°C° 0 mm 1 mps 749 mmHg 72%
    04:00 +33°C° 0 mm 1 mps 750 mmHg 72%
    05:00 +33°C° 0 mm 1 mps 750 mmHg 71%
    06:00 +33°C° 0 mm 1 mps 750 mmHg 71%
    07:00 +34°C° 0 mm 1 mps 750 mmHg 65%
    08:00 +35°C° 0 mm 1 mps 751 mmHg 59%
    09:00 +36°C° 0 mm 1 mps 751 mmHg 53%
    10:00 +37°C° 0 mm 1 mps 751 mmHg 48%
    11:00 +40°C° 0 mm 1 mps 750 mmHg 42%
    12:00 +41°C° 0 mm 1 mps 750 mmHg 36%
    13:00 +41°C° 0 mm 2 mps 750 mmHg 35%
    14:00 +42°C° 0 mm 3 mps 749 mmHg 34%
    15:00 +42°C° 0 mm 4 mps 749 mmHg 34%
    16:00 +41°C° 0 mm 4 mps 749 mmHg 39%
    17:00 +40°C° 0 mm 5 mps 749 mmHg 45%
    18:00 +37°C° 0 mm 5 mps 749 mmHg 50%
    19:00 +37°C° 0 mm 5 mps 749 mmHg 52%
    20:00 +37°C° 0 mm 4 mps 750 mmHg 53%
    21:00 +36°C° 0 mm 4 mps 750 mmHg 54%
    22:00 +36°C° 0 mm 4 mps 750 mmHg 53%
    23:00 +36°C° 0 mm 4 mps 750 mmHg 52%

    Tomorrow, 22 September, Friday

    Time Temperature Precipitation Wind Pressure Humidity
    00:00 +35°C° 0 mm 4 mps 750 mmHg 52%
    01:00 +35°C° 0 mm 3 mps 750 mmHg 51%
    02:00 +34°C° 0 mm 3 mps 749 mmHg 50%
    03:00 +34°C° 0 mm 2 mps 749 mmHg 49%
    04:00 +32°C° 0 mm 2 mps 750 mmHg 49%
    05:00 +32°C° 0 mm 1 mps 750 mmHg 49%
    06:00 +32°C° 0 mm 1 mps 750 mmHg 48%
    07:00 +33°C° 0 mm 1 mps 751 mmHg 44%
    08:00 +35°C° 0 mm 1 mps 751 mmHg 40%
    09:00 +37°C° 0 mm 1 mps 751 mmHg 37%
    10:00 +39°C° 0 mm 1 mps 751 mmHg 33%
    11:00 +40°C° 0 mm 1 mps 751 mmHg 30%
    12:00 +41°C° 0 mm 2 mps 751 mmHg 27%
    13:00 +41°C° 0 mm 2 mps 751 mmHg 25%
    14:00 +42°C° 0 mm 3 mps 750 mmHg 24%
    15:00 +43°C° 0 mm 3 mps 750 mmHg 22%
    16:00 +41°C° 0 mm 4 mps 750 mmHg 27%
    17:00 +40°C° 0 mm 4 mps 750 mmHg 31%
    18:00 +38°C° 0 mm 4 mps 750 mmHg 36%
    19:00 +37°C° 0 mm 4 mps 751 mmHg 39%
    20:00 +37°C° 0 mm 4 mps 751 mmHg 43%
    21:00 +36°C° 0 mm 4 mps 751 mmHg 46%
    22:00 +36°C° 0 mm 3 mps 751 mmHg 45%
    23:00 +35°C° 0 mm 3 mps 751 mmHg 45%

    Day after tomorrow, 23 September, Saturday

    Time Temperature Precipitation Wind Pressure Humidity
    00:00 +35°C° 0 mm 2 mps 751 mmHg 44%
    01:00 +34°C° 0 mm 2 mps 751 mmHg 43%
    02:00 +34°C° 0 mm 2 mps 751 mmHg 43%
    03:00 +32°C° 0 mm 2 mps 751 mmHg 42%
    04:00 +32°C° 0 mm 1 mps 751 mmHg 43%
    05:00 +32°C° 0 mm 1 mps 752 mmHg 43%
    06:00 +32°C° 0 mm 1 mps 752 mmHg 44%
    07:00 +33°C° 0 mm 1 mps 752 mmHg 40%
    08:00 +35°C° 0 mm 1 mps 753 mmHg 36%
    09:00 +35°C° 0 mm 0 mps 753 mmHg 31%
    10:00 +39°C° 0 mm 1 mps 753 mmHg 29%
    11:00 +40°C° 0 mm 1 mps 753 mmHg 26%
    12:00 +41°C° 0 mm 2 mps 753 mmHg 23%
    13:00 +41°C° 0 mm 2 mps 752 mmHg 23%
    14:00 +42°C° 0 mm 3 mps 752 mmHg 22%
    15:00 +42°C° 0 mm 3 mps 751 mmHg 21%
    16:00 +40°C° 0 mm 3 mps 751 mmHg 25%
    17:00 +39°C° 0 mm 3 mps 752 mmHg 28%
    18:00 +38°C° 0 mm 3 mps 752 mmHg 32%
    19:00 +37°C° 0 mm 3 mps 752 mmHg 35%
    20:00 +36°C° 0 mm 3 mps 752 mmHg 38%
    21:00 +36°C° 0 mm 3 mps 753 mmHg 41%
    22:00 +35°C° 0 mm 3 mps 752 mmHg 43%
    23:00 +35°C° 0 mm 2 mps 752 mmHg 44%

    24 September, Sunday

    Time Temperature Precipitation Wind Pressure Humidity
    00:00 +34°C° 0 mm 2 mps 752 mmHg 45%
    01:00 +34°C° 0 mm 2 mps 752 mmHg 45%
    02:00 +32°C° 0 mm 1 mps 752 mmHg 45%
    03:00 +32°C° 0 mm 1 mps 752 mmHg 45%
    04:00 +32°C° 0 mm 1 mps 752 mmHg 45%
    05:00 +32°C° 0 mm 2 mps 753 mmHg 44%
    06:00 +32°C° 0 mm 2 mps 753 mmHg 43%
    07:00 +35°C° 0 mm 2 mps 753 mmHg 39%
    08:00 +35°C° 0 mm 1 mps 754 mmHg 35%
    09:00 +37°C° 0 mm 1 mps 754 mmHg 31%
    10:00 +39°C° 0 mm 1 mps 754 mmHg 29%
    11:00 +40°C° 0 mm 1 mps 753 mmHg 26%
    12:00 +41°C° 0 mm 1 mps 753 mmHg 23%
    13:00 +41°C° 0 mm 1 mps 752 mmHg 23%
    14:00 +41°C° 0 mm 2 mps 752 mmHg 22%
    15:00 +42°C° 0 mm 3 mps 752 mmHg 22%
    16:00 +40°C° 0 mm 3 mps 752 mmHg 25%
    17:00 +39°C° 0 mm 3 mps 752 mmHg 28%
    18:00 +38°C° 0 mm 3 mps 752 mmHg 31%
    19:00 +37°C° 0 mm 3 mps 752 mmHg 34%
    20:00 +37°C° 0 mm 3 mps 753 mmHg 37%
    21:00 +36°C° 0 mm 3 mps 753 mmHg 40%
    22:00 +36°C° 0 mm 3 mps 753 mmHg 42%
    23:00 +35°C° 0 mm 2 mps 753 mmHg 44%

    25 September, Monday

    Time Temperature Precipitation Wind Pressure Humidity
    00:00 +35°C° 0 mm 2 mps 752 mmHg 46%
    01:00 +34°C° 0 mm 2 mps 752 mmHg 46%
    02:00 +34°C° 0 mm 2 mps 752 mmHg 47%
    03:00 +32°C° 0 mm 2 mps 752 mmHg 47%
    04:00 +32°C° 0 mm 1 mps 752 mmHg 47%
    05:00 +32°C° 0 mm 1 mps 752 mmHg 46%
    06:00 +31°C° 0 mm 1 mps 753 mmHg 46%
    07:00 +33°C° 0 mm 1 mps 753 mmHg 42%
    08:00 +35°C° 0 mm 1 mps 753 mmHg 38%
    09:00 +37°C° 0 mm 1 mps 754 mmHg 33%
    10:00 +39°C° 0 mm 1 mps 753 mmHg 31%
    11:00 +39°C° 0 mm 1 mps 753 mmHg 28%
    12:00 +40°C° 0 mm 1 mps 753 mmHg 26%
    13:00 +41°C° 0 mm 2 mps 752 mmHg 25%
    14:00 +41°C° 0 mm 2 mps 752 mmHg 24%
    15:00 +42°C° 0 mm 3 mps 751 mmHg 24%
    16:00 +40°C° 0 mm 3 mps 752 mmHg 27%
    17:00 +39°C° 0 mm 3 mps 752 mmHg 30%
    18:00 +37°C° 0 mm 3 mps 752 mmHg 33%
    19:00 +37°C° 0 mm 3 mps 752 mmHg 36%
    20:00 +36°C° 0 mm 3 mps 752 mmHg 38%
    21:00 +36°C° 0 mm 3 mps 753 mmHg 40%
    22:00 +35°C° 0 mm 2 mps 752 mmHg 42%
    23:00 +34°C° 0 mm 2 mps 752 mmHg 44%

    26 September, Tuesday

    Time Temperature Precipitation Wind Pressure Humidity
    00:00 +33°C° 0 mm 1 mps 752 mmHg 46%
    01:00 +32°C° 0 mm 1 mps 751 mmHg 47%
    02:00 +32°C° 0 mm 1 mps 751 mmHg 48%
    03:00 +31°C° 0 mm 1 mps 751 mmHg 48%
    04:00 +31°C° 0 mm 1 mps 751 mmHg 48%
    05:00 +31°C° 0 mm 1 mps 752 mmHg 47%
    06:00 +31°C° 0 mm 1 mps 752 mmHg 46%
    07:00 +34°C° 0 mm 2 mps 752 mmHg 41%
    08:00 +36°C° 0 mm 2 mps 753 mmHg 35%
    09:00 +38°C° 0 mm 2 mps 753 mmHg 30%
    10:00 +39°C° 0 mm 2 mps 753 mmHg 27%
    11:00 +40°C° 0 mm 1 mps 752 mmHg 24%
    12:00 +41°C° 0 mm 1 mps 752 mmHg 21%
    13:00 +41°C° 0 mm 2 mps 752 mmHg 20%
    14:00 +41°C° 0 mm 2 mps 751 mmHg 20%
    15:00 +43°C° 0 mm 3 mps 751 mmHg 19%
    16:00 +40°C° 0 mm 3 mps 751 mmHg 23%
    17:00 +39°C° 0 mm 3 mps 751 mmHg 28%
    18:00 +38°C° 0 mm 4 mps 752 mmHg 32%
    19:00 +37°C° 0 mm 4 mps 752 mmHg 37%
    20:00 +36°C° 0 mm 4 mps 752 mmHg 41%
    21:00 +36°C° 0 mm 4 mps 752 mmHg 45%
    22:00 +35°C° 0 mm 3 mps 752 mmHg 48%
    23:00 +35°C° 0 mm 3 mps 752 mmHg 50%
    Show more